Location: Black Forest
(43.4794°N, 75.0081°W)
Time: 00:46:01
(UTC-04:00)

ISS - All Passes

Search period start: 31 October 2014 00:00
Search period end: 09 November 2014 23:00
Orbit: 412 x 417 km, 51.6° (Epoch: 30 October)

Date Brightness Start Highest point End Pass type
(mag) Time Alt. Az. Time Alt. Az. Time Alt. Az.
31 Oct - 10:40:58 10° SW 10:44:13 57° SE 10:47:30 10° ENE daylight
31 Oct - 12:18:06 10° W 12:21:05 30° NNW 12:24:05 10° NE daylight
31 Oct - 13:55:59 10° NW 13:58:31 20° N 14:01:03 10° NE daylight
31 Oct - 15:32:46 10° NW 15:35:53 35° NNE 15:38:59 10° E daylight
31 Oct - 17:09:27 10° WNW 17:12:37 41° SW 17:15:46 10° SSE daylight
01 Nov - 09:52:08 10° SSW 09:55:08 32° SE 09:58:10 10° ENE daylight
01 Nov - 11:28:37 10° W 11:31:47 40° NNW 11:34:57 10° NE daylight
01 Nov - 13:06:33 10° NW 13:09:06 20° N 13:11:39 10° NE daylight
01 Nov - 14:43:38 10° NW 14:46:33 27° NNE 14:49:28 10° ENE daylight
01 Nov - 16:20:10 10° WNW 16:23:30 72° SW 16:26:49 10° SE daylight
02 Nov - 08:03:37 10° S 08:06:04 19° SE 08:08:32 10° E daylight
02 Nov - 09:39:12 10° WSW 09:42:30 59° NNW 09:45:48 10° NE daylight
02 Nov - 11:17:01 10° WNW 11:19:40 22° N 11:22:20 10° NE daylight
02 Nov - 12:54:26 10° NW 12:57:09 23° N 12:59:52 10° ENE daylight
02 Nov - 14:30:56 10° NW 14:34:16 70° NNE 14:37:35 10° ESE daylight
02 Nov - 16:08:26 10° W 16:10:37 16° SW 16:12:47 10° S daylight
03 Nov - 07:15:57 10° SSE 07:17:02 11° SE 07:18:06 10° ESE daylight
03 Nov - 08:49:54 10° SW 08:53:13 85° SE 08:56:33 10° ENE daylight
03 Nov - 10:27:23 10° WNW 10:30:13 25° NNW 10:33:03 10° NE daylight
03 Nov - 12:05:06 10° NW 12:07:40 20° N 12:10:15 10° ENE daylight
03 Nov - 13:41:43 10° NW 13:44:57 45° NNE 13:48:10 10° E daylight
03 Nov - 15:18:37 10° WNW 15:21:31 27° SW 15:24:23 10° SSE daylight
04 Nov - 08:00:45 10° SW 08:03:58 49° SE 08:07:11 10° ENE daylight
04 Nov - 09:37:44 10° W 09:40:45 32° NNW 09:43:48 10° NE daylight
04 Nov - 11:15:38 10° NW 11:18:09 20° N 11:20:40 10° NE daylight
04 Nov - 12:52:28 10° NW 12:55:32 32° NNE 12:58:35 10° E daylight
04 Nov - 14:29:05 10° WNW 14:32:19 47° SW 14:35:31 10° SE daylight
05 Nov - 07:11:50 10° SSW 07:14:44 28° SE 07:17:38 10° ENE daylight
05 Nov - 08:48:06 10° W 08:51:18 44° NNW 08:54:31 10° NE daylight
05 Nov - 10:26:01 10° NW 10:28:35 20° N 10:31:09 10° NE daylight
05 Nov - 12:03:10 10° NW 12:06:02 25° NNE 12:08:53 10° ENE daylight
05 Nov - 13:39:40 10° WNW 13:43:00 82° SW 13:46:20 10° SE daylight
05 Nov - 15:18:16 10° WSW 15:19:10 11° SW 15:20:04 10° SW daylight
06 Nov - 06:23:19 10° S 06:25:31 17° SE 06:27:44 10° E daylight
06 Nov - 07:58:34 10° WSW 08:01:52 67° NNW 08:05:11 10° NE daylight
06 Nov - 09:36:17 10° WNW 09:38:59 22° N 09:41:41 10° NE daylight
06 Nov - 11:13:47 10° NW 11:16:27 22° N 11:19:07 10° ENE daylight
06 Nov - 12:50:18 10° NW 12:53:36 61° NNE 12:56:54 10° ESE daylight
06 Nov - 14:27:35 10° W 14:30:00 19° SW 14:32:24 10° S daylight
07 Nov - 07:09:08 10° SW 07:12:26 74° SE 07:15:46 10° ENE daylight
07 Nov - 08:46:30 10° WNW 08:49:22 26° NNW 08:52:16 10° NE daylight
07 Nov - 10:24:16 10° NW 10:26:48 20° N 10:29:21 10° NE daylight
07 Nov - 12:00:55 10° NW 12:04:06 40° NNE 12:07:16 10° E daylight
07 Nov - 13:37:43 10° WNW 13:40:43 32° SW 13:43:43 10° SSE daylight
08 Nov - 06:19:54 10° SSW 06:23:02 42° SE 06:26:12 10° ENE daylight
08 Nov - 07:56:41 10° W 07:59:46 34° NNW 08:02:51 10° NE daylight
08 Nov - 09:34:36 10° NW 09:37:07 20° N 09:39:38 10° NE daylight
08 Nov - 11:11:31 10° NW 11:14:31 30° NNE 11:17:30 10° E daylight
08 Nov - 12:48:04 10° WNW 12:51:20 55° SW 12:54:36 10° SE daylight
09 Nov - 05:30:55 10° SSW 05:33:40 24° SE 05:36:25 10° E visible
09 Nov - 07:06:56 10° WSW 07:10:10 49° NNW 07:13:24 10° NE daylight
09 Nov - 08:44:48 10° WNW 08:47:23 21° N 08:49:59 10° NE daylight
09 Nov - 10:22:03 10° NW 10:24:50 24° NNE 10:27:37 10° ENE daylight
09 Nov - 11:58:31 10° WNW 12:01:51 86° NNE 12:05:11 10° ESE daylight
09 Nov - 13:36:31 10° WSW 13:38:05 13° SW 13:39:38 10° SSW daylight
